Weather History for KTTN - February, 2014

Change the Weather History Date:

Sunday, February 16, 2014

  Actual Average Record
Temperature  
Mean Temperature 24 °F 34 °F  
Max Temperature 28 °F 42 °F 72 °F (1954)
Min Temperature 19 °F 26 °F 1 °F (1888)
Degree Days  
Heating Degree Days 41 31  
Month to date heating degree days 598 514  
Since 1 July heating degree days 3683 3460  
Cooling Degree Days 0 0  
Month to date cooling degree days 0 0  
Year to date cooling degree days 0 0  
Moisture  
Dew Point 9 °F    
Average Humidity 54    
Maximum Humidity 65    
Minimum Humidity 42    
Precipitation  
Precipitation 0.00 in 0.09 in 0.90 in (2003)
Month to date precipitation 3.73 1.24  
Year to date precipitation 7.00 4.40  
Sea Level Pressure  
Sea Level Pressure 29.97 in    
Wind  
Wind Speed 12 mph (NW)    
Max Wind Speed 21 mph    
Max Gust Speed 30 mph    
Visibility 10 miles    
Events      
T = Trace of Precipitation, MM = Missing Value Source: NWS Daily Summary

Daily Weather History Graph

Daily Weather History Graph

Search for Another Location

Airport or City:

Trip Planner

Search our weather history database for the weather conditions in past years. The results will help you decide how hot, cold, wet, or windy it might be!

Date:

Astronomy

Feb. 16, 2014 Rise Set
Actual Time 6:51 AM EST 5:35 PM EST
Civil Twilight 6:23 AM EST 6:03 PM EST
Nautical Twilight 5:51 AM EST 6:35 PM EST
Astronomical Twilight 5:20 AM EST 7:07 PM EST
Moon 7:30 PM EST (2/16) 7:19 AM EST (2/16)
Length of Visible Light 11h 40m
Length of Day
10h 44m
Full, 97% of the Moon is Illuminated
Feb 16
Full
Feb 22
Last Quarter
Mar 1
New
Mar 8
First Quarter
Mar 16
Full

Hourly Weather History & Observations

Time (EST) Temp. Windchill Dew Point Humidity Pressure Visibility Wind Dir Wind Speed Gust Speed Precip Events Conditions
12:53 AM 25.0 °F 14.2 °F 12.0 °F 58% 29.82 in 10.0 mi NNW 11.5 mph 25.3 mph N/A   Clear
1:53 AM 24.1 °F 12.5 °F 10.9 °F 57% 29.85 in 10.0 mi WNW 12.7 mph 23.0 mph N/A   Partly Cloudy
2:53 AM 23.0 °F 9.6 °F 9.0 °F 55% 29.86 in 10.0 mi NW 16.1 mph 29.9 mph N/A   Clear
3:53 AM 21.9 °F 10.4 °F 9.0 °F 58% 29.88 in 10.0 mi WNW 11.5 mph 24.2 mph N/A   Clear
4:53 AM 19.9 °F 7.3 °F 8.1 °F 60% 29.92 in 10.0 mi NW 12.7 mph 23.0 mph N/A   Clear
5:53 AM 19.9 °F 7.9 °F 7.0 °F 57% 29.93 in 10.0 mi WNW 11.5 mph 25.3 mph N/A   Clear
6:53 AM 19.0 °F 5.0 °F 7.0 °F 59% 29.93 in 10.0 mi NW 15.0 mph 25.3 mph N/A   Clear
7:53 AM 19.0 °F 7.5 °F 6.1 °F 57% 29.96 in 10.0 mi NW 10.4 mph 18.4 mph N/A   Clear
8:53 AM 19.9 °F 6.7 °F 6.1 °F 55% 29.97 in 10.0 mi NW 13.8 mph 23.0 mph N/A   Clear
9:53 AM 21.0 °F 9.9 °F 7.0 °F 55% 29.99 in 10.0 mi NW 10.4 mph 21.9 mph N/A   Clear
10:53 AM 23.0 °F 13.1 °F 8.1 °F 53% 29.99 in 10.0 mi West 9.2 mph 20.7 mph N/A   Clear
11:53 AM 24.1 °F 12.5 °F 7.0 °F 48% 29.99 in 10.0 mi WNW 12.7 mph 23.0 mph N/A   Clear
12:53 PM 26.1 °F 14.5 °F 8.1 °F 47% 29.96 in 10.0 mi NNW 13.8 mph 21.9 mph N/A   Clear
1:53 PM 27.0 °F 16.1 °F 7.0 °F 43% 29.96 in 10.0 mi WNW 12.7 mph 20.7 mph N/A   Partly Cloudy
2:53 PM 27.0 °F 15.6 °F 8.1 °F 45% 29.96 in 10.0 mi NW 13.8 mph - N/A   Mostly Cloudy
3:53 PM 27.0 °F 15.6 °F 8.1 °F 45% 29.96 in 10.0 mi NW 13.8 mph - N/A   Overcast
4:53 PM 26.1 °F 15.6 °F 7.0 °F 44% 29.97 in 10.0 mi WNW 11.5 mph - N/A   Overcast
5:53 PM 26.1 °F 18.4 °F 9.0 °F 49% 30.00 in 10.0 mi West 6.9 mph - N/A   Overcast
6:53 PM 26.1 °F 16.8 °F 9.0 °F 49% 30.03 in 10.0 mi NW 9.2 mph - N/A   Scattered Clouds
7:53 PM 25.0 °F 13.1 °F 10.9 °F 55% 30.05 in 10.0 mi NW 13.8 mph 21.9 mph N/A   Clear
8:53 PM 24.1 °F 12.5 °F 12.0 °F 60% 30.06 in 10.0 mi NNW 12.7 mph 19.6 mph N/A   Partly Cloudy
9:53 PM 23.0 °F 11.1 °F 12.0 °F 63% 30.09 in 10.0 mi NNW 12.7 mph 17.3 mph N/A   Partly Cloudy
10:53 PM 23.0 °F 11.1 °F 12.0 °F 63% 30.11 in 10.0 mi NNW 12.7 mph 19.6 mph N/A   Clear
11:53 PM 21.9 °F 9.2 °F 12.0 °F 66% 30.14 in 10.0 mi NNW 13.8 mph 20.7 mph N/A   Clear